Weather History for Edinburg, TX

Change the Weather History Date:

Friday, April 13, 2012

  Actual Average (KMFE) Record (KMFE)
Temperature  
Mean Temperature 28 °C 24 °C  
Max Temperature 32 °C 31 °C 36 °C (2009)
Min Temperature 24 °C 18 °C 8 °C (1997)
Degree Days  
Heating Degree Days 0 0  
Month to date heating degree days 3  
Since 1 July heating degree days 574  
Cooling Degree Days 18 11  
Month to date cooling degree days 137  
Year to date cooling degree days 514  
Growing Degree Days 32 (Base 50)    
Moisture  
Dew Point 21 °C    
Average Humidity 66    
Maximum Humidity 82    
Minimum Humidity 45    
Precipitation  
Precipitation 0.00 mm 1.02 mm 2.06 mm (2010)
Month to date precipitation 0.43  
Year to date precipitation 3.62  
Sea Level Pressure  
Sea Level Pressure 1011 hPa    
Wind  
Wind Speed 23 km/h (SE)    
Max Wind Speed 39 km/h    
Max Gust Speed 52 km/h    
Visibility 15 kilometers    
Events Rain    
T = Trace of Precipitation, MM = Missing Value Source: NWS Daily Summary

Daily Weather History Graph

Daily Weather History Graph

Search for Another Location

Airport:

Trip Planner

Search our weather history database for the weather conditions in past years. The results will help you decide how hot, cold, wet, or windy it might be!

Date:

Astronomy

Apr. 13, 2012 Rise Set
Actual Time 7:10 AM CDT 7:55 PM CDT
Civil Twilight 6:46 AM CDT 8:19 PM CDT
Nautical Twilight 6:19 AM CDT 8:47 PM CDT
Astronomical Twilight 5:50 AM CDT 9:15 PM CDT
Moon 2:14 AM CDT (4/13) 1:25 PM CDT (4/13)
Length of Visible Light 13h 32m
Length of Day
12h 45m
Waning Gibbous, 47% of the Moon is Illuminated
Apr 13
Waning Gibbous
Apr 21
New
Apr 29
First Quarter
May 5
Full
May 12
Last Quarter

Hourly Weather History & Observations

Time (CDT) Temp. Heat Index Dew Point Humidity Pressure Visibility Wind Dir Wind Speed Gust Speed Precip Events Conditions
12:15 AM 24.9 °C - 20.5 °C 76% 1013.1 hPa 16.1 km SE 20.4 km/h / 5.7 m/s 27.8 km/h / 7.7 m/s N/A   Scattered Clouds
12:35 AM 24.7 °C - 20.5 °C 77% 1012.8 hPa 16.1 km SE 14.8 km/h / 4.1 m/s - N/A   Scattered Clouds
12:55 AM 24.6 °C - 20.5 °C 78% 1012.4 hPa 16.1 km SE 18.5 km/h / 5.1 m/s - N/A   Scattered Clouds
1:15 AM 24.6 °C - 20.5 °C 78% 1012.4 hPa 16.1 km SE 18.5 km/h / 5.1 m/s - N/A   Scattered Clouds
1:35 AM 24.5 °C - 20.5 °C 78% 1012.4 hPa 16.1 km SE 18.5 km/h / 5.1 m/s - N/A   Mostly Cloudy
1:55 AM 24.8 °C - 20.6 °C 77% 1012.1 hPa 16.1 km SE 20.4 km/h / 5.7 m/s 27.8 km/h / 7.7 m/s N/A   Overcast
2:15 AM 25.1 °C - 20.6 °C 76% 1011.7 hPa 16.1 km SE 22.2 km/h / 6.2 m/s 35.2 km/h / 9.8 m/s N/A   Overcast
2:35 AM 24.9 °C - 20.5 °C 76% 1011.4 hPa 16.1 km SE 22.2 km/h / 6.2 m/s 31.5 km/h / 8.7 m/s N/A   Mostly Cloudy
2:55 AM 24.6 °C - 20.5 °C 78% 1011.4 hPa 16.1 km SE 20.4 km/h / 5.7 m/s - N/A   Scattered Clouds
3:15 AM 24.4 °C - 20.5 °C 79% 1011.4 hPa 16.1 km ESE 16.7 km/h / 4.6 m/s - N/A   Scattered Clouds
3:35 AM 24.3 °C - 20.5 °C 79% 1011.1 hPa 16.1 km ESE 18.5 km/h / 5.1 m/s - N/A   Scattered Clouds
3:55 AM 24.3 °C - 20.5 °C 79% 1011.1 hPa 16.1 km ESE 14.8 km/h / 4.1 m/s - N/A   Mostly Cloudy
4:15 AM 24.5 °C - 20.5 °C 78% 1011.4 hPa 16.1 km SE 16.7 km/h / 4.6 m/s - N/A   Overcast
4:35 AM 24.5 °C - 20.6 °C 79% 1011.4 hPa 16.1 km SE 16.7 km/h / 4.6 m/s - N/A   Overcast
4:55 AM 24.7 °C - 20.7 °C 78% 1011.4 hPa 16.1 km SE 16.7 km/h / 4.6 m/s - N/A   Overcast
5:15 AM 24.7 °C - 20.9 °C 79% 1011.4 hPa 16.1 km SE 14.8 km/h / 4.1 m/s - N/A   Overcast
5:35 AM 24.7 °C - 21.0 °C 80% 1011.4 hPa 16.1 km SE 16.7 km/h / 4.6 m/s - N/A   Overcast
5:55 AM 24.8 °C - 21.0 °C 79% 1011.4 hPa 11.3 km SE 16.7 km/h / 4.6 m/s - N/A   Overcast
6:15 AM 24.9 °C - 21.0 °C 79% 1011.7 hPa 16.1 km SE 16.7 km/h / 4.6 m/s - N/A   Overcast
6:35 AM 25.0 °C - 21.1 °C 79% 1011.7 hPa 16.1 km SE 14.8 km/h / 4.1 m/s - N/A   Overcast
6:55 AM 24.6 °C - 21.1 °C 81% 1012.1 hPa 16.1 km SE 13.0 km/h / 3.6 m/s - N/A   Mostly Cloudy
7:15 AM 24.5 °C - 21.1 °C 81% 1012.1 hPa 16.1 km SE 16.7 km/h / 4.6 m/s - N/A   Overcast
7:35 AM 24.5 °C - 21.2 °C 82% 1011.7 hPa 16.1 km SE 18.5 km/h / 5.1 m/s - N/A   Scattered Clouds
7:55 AM 24.4 °C - 21.2 °C 82% 1012.1 hPa 11.3 km SE 18.5 km/h / 5.1 m/s - N/A   Clear
8:15 AM 24.8 °C - 21.4 °C 81% 1012.1 hPa 11.3 km SE 18.5 km/h / 5.1 m/s - N/A   Clear
8:35 AM 25.5 °C - 21.5 °C 78% 1012.4 hPa 11.3 km SE 20.4 km/h / 5.7 m/s 29.6 km/h / 8.2 m/s N/A   Clear
8:55 AM 26.2 °C - 21.5 °C 75% 1012.4 hPa 16.1 km SE 22.2 km/h / 6.2 m/s - N/A   Scattered Clouds
9:15 AM 26.9 °C 28.8 °C 21.3 °C 71% 1012.8 hPa 16.1 km SSE 29.6 km/h / 8.2 m/s 35.2 km/h / 9.8 m/s N/A   Scattered Clouds
9:35 AM 27.6 °C 29.6 °C 21.0 °C 67% 1012.8 hPa 16.1 km SE 29.6 km/h / 8.2 m/s 37.0 km/h / 10.3 m/s N/A   Mostly Cloudy
9:55 AM 27.9 °C 30.0 °C 20.9 °C 66% 1013.1 hPa 11.3 km SE 33.3 km/h / 9.3 m/s 42.6 km/h / 11.8 m/s N/A Rain Light Rain
10:15 AM 28.2 °C 30.1 °C 20.6 °C 63% 1013.1 hPa 16.1 km SSE 29.6 km/h / 8.2 m/s 37.0 km/h / 10.3 m/s N/A   Mostly Cloudy
10:35 AM 28.5 °C 30.3 °C 20.3 °C 61% 1013.1 hPa 16.1 km SE 29.6 km/h / 8.2 m/s 40.7 km/h / 11.3 m/s N/A   Mostly Cloudy
10:55 AM 29.0 °C 30.9 °C 20.2 °C 59% 1012.8 hPa 16.1 km SSE 27.8 km/h / 7.7 m/s 38.9 km/h / 10.8 m/s N/A   Mostly Cloudy
11:15 AM 29.5 °C 31.1 °C 19.7 °C 55% 1012.8 hPa 16.1 km SSE 31.5 km/h / 8.7 m/s 42.6 km/h / 11.8 m/s N/A   Overcast
11:35 AM 29.8 °C 31.4 °C 19.5 °C 54% 1012.8 hPa 16.1 km SSE 33.3 km/h / 9.3 m/s 42.6 km/h / 11.8 m/s N/A   Mostly Cloudy
11:55 AM 30.2 °C 31.9 °C 19.6 °C 53% 1012.4 hPa 11.3 km SSE 29.6 km/h / 8.2 m/s 44.4 km/h / 12.3 m/s N/A   Overcast
12:15 PM 30.6 °C 32.3 °C 19.6 °C 52% 1012.4 hPa 11.3 km SE 35.2 km/h / 9.8 m/s 51.9 km/h / 14.4 m/s N/A   Overcast
12:35 PM 30.9 °C 32.6 °C 19.7 °C 51% 1012.4 hPa 11.3 km SE 31.5 km/h / 8.7 m/s 40.7 km/h / 11.3 m/s N/A   Overcast
12:55 PM 31.2 °C 33.0 °C 19.7 °C 50% 1012.4 hPa 11.3 km SE 27.8 km/h / 7.7 m/s - N/A   Overcast
1:15 PM 31.2 °C 33.0 °C 19.6 °C 50% 1012.1 hPa 16.1 km South 33.3 km/h / 9.3 m/s 42.6 km/h / 11.8 m/s N/A   Overcast
1:35 PM 31.5 °C 33.0 °C 19.4 °C 48% 1011.7 hPa 16.1 km SSE 33.3 km/h / 9.3 m/s 42.6 km/h / 11.8 m/s N/A   Mostly Cloudy
1:55 PM 32.0 °C 33.5 °C 19.1 °C 46% 1011.4 hPa 16.1 km SSE 27.8 km/h / 7.7 m/s 40.7 km/h / 11.3 m/s N/A   Mostly Cloudy
2:15 PM 31.6 °C 33.0 °C 19.0 °C 47% 1011.4 hPa 16.1 km SE 31.5 km/h / 8.7 m/s 42.6 km/h / 11.8 m/s N/A   Mostly Cloudy
2:35 PM 32.0 °C 33.5 °C 19.2 °C 46% 1011.1 hPa 16.1 km SE 29.6 km/h / 8.2 m/s 37.0 km/h / 10.3 m/s N/A   Overcast
2:55 PM 32.6 °C 34.2 °C 19.1 °C 45% 1011.1 hPa 16.1 km SSE 31.5 km/h / 8.7 m/s 42.6 km/h / 11.8 m/s N/A   Mostly Cloudy
3:15 PM 32.2 °C 33.8 °C 19.1 °C 46% 1010.7 hPa 16.1 km SSE 33.3 km/h / 9.3 m/s 40.7 km/h / 11.3 m/s N/A   Overcast
3:35 PM 32.6 °C 34.2 °C 19.1 °C 45% 1010.7 hPa 16.1 km SE 35.2 km/h / 9.8 m/s 46.3 km/h / 12.9 m/s N/A   Mostly Cloudy
4:15 PM 32.0 °C 33.5 °C 19.1 °C 46% 1010.0 hPa 16.1 km SSE 35.2 km/h / 9.8 m/s 42.6 km/h / 11.8 m/s N/A   Mostly Cloudy
4:35 PM 32.2 °C 33.8 °C 19.1 °C 46% 1009.7 hPa 16.1 km SE 35.2 km/h / 9.8 m/s 46.3 km/h / 12.9 m/s N/A   Scattered Clouds
4:55 PM 32.2 °C 33.8 °C 19.3 °C 46% 1009.7 hPa 16.1 km SSE 29.6 km/h / 8.2 m/s 40.7 km/h / 11.3 m/s N/A   Clear
5:15 PM 31.8 °C 33.3 °C 19.1 °C 47% 1009.7 hPa 16.1 km South 33.3 km/h / 9.3 m/s 44.4 km/h / 12.3 m/s N/A   Scattered Clouds
5:35 PM 31.6 °C 33.2 °C 19.3 °C 48% 1009.7 hPa 16.1 km SSE 24.1 km/h / 6.7 m/s 40.7 km/h / 11.3 m/s N/A   Scattered Clouds
5:55 PM 31.1 °C 32.8 °C 19.7 °C 50% 1009.7 hPa 16.1 km SSE 29.6 km/h / 8.2 m/s 38.9 km/h / 10.8 m/s N/A   Mostly Cloudy
6:15 PM 30.5 °C 32.2 °C 19.7 °C 52% 1009.7 hPa 16.1 km SE 29.6 km/h / 8.2 m/s 46.3 km/h / 12.9 m/s N/A   Scattered Clouds
6:35 PM 30.0 °C 31.7 °C 19.7 °C 54% 1009.7 hPa 16.1 km SE 29.6 km/h / 8.2 m/s 40.7 km/h / 11.3 m/s N/A   Scattered Clouds
6:55 PM 29.9 °C 31.5 °C 19.7 °C 54% 1009.7 hPa 16.1 km SE 38.9 km/h / 10.8 m/s - N/A   Mostly Cloudy
7:15 PM 29.5 °C 31.2 °C 19.8 °C 56% 1009.7 hPa 16.1 km SSE 31.5 km/h / 8.7 m/s 38.9 km/h / 10.8 m/s N/A   Scattered Clouds
7:35 PM 28.7 °C 30.4 °C 20.0 °C 59% 1009.7 hPa 16.1 km SSE 31.5 km/h / 8.7 m/s 40.7 km/h / 11.3 m/s N/A   Clear
7:55 PM 28.1 °C 29.7 °C 20.0 °C 61% 1010.0 hPa 16.1 km SSE 25.9 km/h / 7.2 m/s 40.7 km/h / 11.3 m/s N/A   Clear
8:15 PM 27.6 °C 29.2 °C 20.0 °C 63% 1010.4 hPa 16.1 km SE 29.6 km/h / 8.2 m/s 35.2 km/h / 9.8 m/s N/A   Clear
8:35 PM 27.2 °C 28.8 °C 20.0 °C 65% 1010.4 hPa 16.1 km SSE 24.1 km/h / 6.7 m/s 33.3 km/h / 9.3 m/s N/A   Clear
8:55 PM 26.9 °C 28.5 °C 20.2 °C 67% 1010.7 hPa 16.1 km SE 16.7 km/h / 4.6 m/s 29.6 km/h / 8.2 m/s N/A   Clear
9:15 PM 26.4 °C - 20.4 °C 69% 1011.1 hPa 16.1 km SE 16.7 km/h / 4.6 m/s - N/A   Clear
9:35 PM 26.2 °C - 20.6 °C 71% 1011.4 hPa 16.1 km SE 20.4 km/h / 5.7 m/s - N/A   Clear
9:55 PM 26.1 °C - 20.8 °C 72% 1011.4 hPa 16.1 km SE 25.9 km/h / 7.2 m/s 31.5 km/h / 8.7 m/s N/A   Clear
10:15 PM 26.0 °C - 21.0 °C 74% 1011.4 hPa 16.1 km SE 22.2 km/h / 6.2 m/s - N/A   Scattered Clouds
10:35 PM 25.7 °C - 21.2 °C 76% 1011.4 hPa 11.3 km SE 20.4 km/h / 5.7 m/s - N/A   Mostly Cloudy
10:55 PM 25.9 °C - 21.4 °C 76% 1011.7 hPa 11.3 km SE 16.7 km/h / 4.6 m/s 33.3 km/h / 9.3 m/s N/A   Overcast
11:15 PM 26.0 °C - 21.5 °C 76% 1011.7 hPa 11.3 km SSE 16.7 km/h / 4.6 m/s - N/A   Mostly Cloudy
11:35 PM 25.8 °C - 21.6 °C 77% 1011.7 hPa 11.3 km SE 25.9 km/h / 7.2 m/s 31.5 km/h / 8.7 m/s N/A   Scattered Clouds
11:55 PM 25.6 °C - 21.7 °C 79% 1011.4 hPa 11.3 km SE 18.5 km/h / 5.1 m/s - N/A   Scattered Clouds